• In Latvia
  • List of Countries
  • For 7 days
  • Water Temperature
  • Satellite Maps
  • Weather Map
  • Weather Widgets
  • user-avatar
    Login

    Hourly Weather San Luis

    Today, 27 April, Thursday

    Time Temperature Precipitation Wind Pressure Humidity
    00:00 +9°C° 0 mm 3 mps 701 mmHg 41%
    01:00 +9°C° 0 mm 3 mps 701 mmHg 41%
    02:00 +8°C° 0 mm 4 mps 701 mmHg 41%
    03:00 +8°C° 0 mm 4 mps 700 mmHg 40%
    04:00 +8°C° 0 mm 4 mps 700 mmHg 40%
    05:00 +8°C° 0 mm 4 mps 700 mmHg 39%
    06:00 +8°C° 0 mm 4 mps 700 mmHg 38%
    07:00 +10°C° 0 mm 4 mps 700 mmHg 38%
    08:00 +10°C° 0 mm 4 mps 701 mmHg 37%
    09:00 +13°C° 0 mm 5 mps 701 mmHg 32%
    10:00 +16°C° 0 mm 6 mps 701 mmHg 27%
    11:00 +18°C° 0 mm 7 mps 702 mmHg 22%
    12:00 +20°C° 0 mm 7 mps 701 mmHg 20%
    13:00 +21°C° 0 mm 7 mps 700 mmHg 19%
    14:00 +22°C° 0 mm 8 mps 700 mmHg 17%
    15:00 +21°C° 0 mm 7 mps 699 mmHg 21%
    16:00 +20°C° 0 mm 6 mps 699 mmHg 24%
    17:00 +19°C° 0 mm 6 mps 698 mmHg 27%
    18:00 +16°C° 0 mm 5 mps 698 mmHg 30%
    19:00 +15°C° 0 mm 5 mps 698 mmHg 33%
    20:00 +13°C° 0 mm 5 mps 699 mmHg 36%
    21:00 +13°C° 0 mm 5 mps 699 mmHg 36%
    22:00 +14°C° 0 mm 6 mps 699 mmHg 37%
    23:00 +14°C° 0 mm 6 mps 700 mmHg 37%

    Tomorrow, 28 April, Friday

    Time Temperature Precipitation Wind Pressure Humidity
    00:00 +13°C° 0 mm 6 mps 700 mmHg 41%
    01:00 +13°C° 0 mm 6 mps 700 mmHg 45%
    02:00 +13°C° 0 mm 5 mps 700 mmHg 49%
    03:00 +12°C° 0 mm 5 mps 700 mmHg 52%
    04:00 +12°C° 0 mm 4 mps 700 mmHg 55%
    05:00 +11°C° 0 mm 3 mps 700 mmHg 58%
    06:00 +12°C° 0 mm 3 mps 701 mmHg 58%
    07:00 +13°C° 0 mm 2 mps 702 mmHg 57%
    08:00 +14°C° 0 mm 2 mps 702 mmHg 57%
    09:00 +16°C° 0 mm 2 mps 703 mmHg 50%
    10:00 +19°C° 0 mm 2 mps 704 mmHg 42%
    11:00 +21°C° 0 mm 2 mps 705 mmHg 35%
    12:00 +23°C° 0 mm 2 mps 704 mmHg 33%
    13:00 +24°C° 0 mm 3 mps 704 mmHg 31%
    14:00 +25°C° 0 mm 3 mps 703 mmHg 29%
    15:00 +24°C° 0 mm 3 mps 703 mmHg 33%
    16:00 +23°C° 0 mm 2 mps 702 mmHg 37%
    17:00 +21°C° 0 mm 2 mps 702 mmHg 41%
    18:00 +19°C° 0 mm 2 mps 702 mmHg 44%
    19:00 +18°C° 0 mm 2 mps 702 mmHg 47%
    20:00 +16°C° 0 mm 2 mps 702 mmHg 51%
    21:00 +16°C° 0 mm 3 mps 702 mmHg 51%
    22:00 +14°C° 0 mm 3 mps 702 mmHg 51%
    23:00 +14°C° 0 mm 4 mps 702 mmHg 51%

    Day after tomorrow, 29 April, Saturday

    Time Temperature Precipitation Wind Pressure Humidity
    00:00 +14°C° 0 mm 4 mps 702 mmHg 52%
    01:00 +13°C° 0 mm 4 mps 702 mmHg 52%
    02:00 +13°C° 0 mm 4 mps 702 mmHg 53%
    03:00 +13°C° 0 mm 4 mps 701 mmHg 54%
    04:00 +13°C° 0 mm 4 mps 701 mmHg 56%
    05:00 +12°C° 0 mm 4 mps 701 mmHg 57%
    06:00 +13°C° 0 mm 4 mps 701 mmHg 56%
    07:00 +13°C° 0 mm 4 mps 702 mmHg 55%
    08:00 +14°C° 0 mm 4 mps 702 mmHg 55%
    09:00 +16°C° 0 mm 5 mps 702 mmHg 48%
    10:00 +19°C° 0 mm 5 mps 703 mmHg 41%
    11:00 +22°C° 0 mm 5 mps 703 mmHg 35%
    12:00 +22°C° 0 mm 5 mps 703 mmHg 33%
    13:00 +23°C° 0 mm 5 mps 702 mmHg 31%
    14:00 +25°C° 0 mm 4 mps 702 mmHg 29%
    15:00 +23°C° 0 mm 4 mps 701 mmHg 32%
    16:00 +22°C° 0 mm 4 mps 701 mmHg 35%
    17:00 +21°C° 0 mm 3 mps 701 mmHg 39%
    18:00 +20°C° 0 mm 3 mps 701 mmHg 43%
    19:00 +18°C° 0 mm 3 mps 701 mmHg 47%
    20:00 +16°C° 0 mm 3 mps 701 mmHg 51%
    21:00 +16°C° 0 mm 3 mps 701 mmHg 51%
    22:00 +15°C° 0 mm 4 mps 701 mmHg 51%
    23:00 +14°C° 0 mm 4 mps 701 mmHg 52%

    30 April, Sunday

    Time Temperature Precipitation Wind Pressure Humidity
    00:00 +14°C° 0 mm 4 mps 701 mmHg 51%
    01:00 +14°C° 0 mm 4 mps 701 mmHg 51%
    02:00 +14°C° 0 mm 5 mps 701 mmHg 50%
    03:00 +13°C° 0 mm 4 mps 701 mmHg 50%
    04:00 +13°C° 0 mm 4 mps 700 mmHg 50%
    05:00 +13°C° 0 mm 4 mps 700 mmHg 50%
    06:00 +13°C° 0 mm 4 mps 701 mmHg 51%
    07:00 +14°C° 0 mm 4 mps 701 mmHg 51%
    08:00 +14°C° 0 mm 4 mps 701 mmHg 51%
    09:00 +17°C° 0 mm 4 mps 702 mmHg 46%
    10:00 +20°C° 0 mm 4 mps 702 mmHg 40%
    11:00 +22°C° 0 mm 5 mps 702 mmHg 35%
    12:00 +23°C° 0 mm 5 mps 702 mmHg 33%
    13:00 +25°C° 0 mm 5 mps 701 mmHg 32%
    14:00 +25°C° 0 mm 5 mps 701 mmHg 31%
    15:00 +23°C° 0 mm 5 mps 700 mmHg 34%
    16:00 +22°C° 0 mm 4 mps 700 mmHg 37%
    17:00 +21°C° 0 mm 4 mps 699 mmHg 40%
    18:00 +20°C° 0 mm 4 mps 699 mmHg 44%
    19:00 +18°C° 0 mm 4 mps 700 mmHg 48%
    20:00 +17°C° 0 mm 4 mps 700 mmHg 53%
    21:00 +15°C° 0 mm 5 mps 700 mmHg 50%
    22:00 +15°C° 0 mm 5 mps 700 mmHg 48%
    23:00 +15°C° 0 mm 6 mps 700 mmHg 46%

    1 May, Monday

    Time Temperature Precipitation Wind Pressure Humidity
    00:00 +15°C° 0 mm 6 mps 700 mmHg 45%
    01:00 +15°C° 0 mm 7 mps 700 mmHg 44%
    02:00 +15°C° 0 mm 7 mps 699 mmHg 43%
    03:00 +15°C° 0 mm 7 mps 699 mmHg 44%
    04:00 +14°C° 0 mm 6 mps 699 mmHg 45%
    05:00 +14°C° 0 mm 6 mps 699 mmHg 46%
    06:00 +14°C° 0 mm 6 mps 699 mmHg 47%
    07:00 +15°C° 0 mm 6 mps 699 mmHg 48%
    08:00 +15°C° 0 mm 6 mps 700 mmHg 48%
    09:00 +17°C° 0 mm 7 mps 700 mmHg 44%
    10:00 +20°C° 0 mm 7 mps 700 mmHg 39%
    11:00 +23°C° 0 mm 8 mps 701 mmHg 34%
    12:00 +23°C° 0 mm 8 mps 700 mmHg 33%
    13:00 +24°C° 0 mm 8 mps 700 mmHg 32%
    14:00 +26°C° 0 mm 8 mps 699 mmHg 31%
    15:00 +24°C° 0 mm 7 mps 699 mmHg 34%
    16:00 +23°C° 0 mm 6 mps 699 mmHg 37%
    17:00 +22°C° 0 mm 6 mps 698 mmHg 41%
    18:00 +20°C° 0 mm 5 mps 698 mmHg 44%
    19:00 +19°C° 0 mm 5 mps 699 mmHg 47%
    20:00 +17°C° 0 mm 5 mps 699 mmHg 50%
    21:00 +16°C° 0 mm 6 mps 699 mmHg 52%
    22:00 +16°C° 0 mm 7 mps 699 mmHg 53%
    23:00 +16°C° 0 mm 7 mps 699 mmHg 54%

    2 May, Tuesday

    Time Temperature Precipitation Wind Pressure Humidity
    00:00 +16°C° 0 mm 7 mps 699 mmHg 57%
    01:00 +16°C° 0 mm 7 mps 699 mmHg 60%
    02:00 +16°C° 0 mm 7 mps 699 mmHg 63%
    03:00 +15°C° 0 mm 7 mps 699 mmHg 65%
    04:00 +15°C° 0 mm 6 mps 699 mmHg 67%
    05:00 +15°C° 0 mm 6 mps 698 mmHg 69%
    06:00 +15°C° 0 mm 6 mps 699 mmHg 69%
    07:00 +15°C° 0 mm 6 mps 699 mmHg 70%
    08:00 +16°C° 0 mm 5 mps 700 mmHg 71%
    09:00 +19°C° 0 mm 6 mps 700 mmHg 63%
    10:00 +21°C° 0 mm 6 mps 700 mmHg 56%
    11:00 +23°C° 0 mm 6 mps 701 mmHg 49%
    12:00 +24°C° 0 mm 6 mps 700 mmHg 47%
    13:00 +24°C° 0 mm 6 mps 700 mmHg 44%
    14:00 +26°C° 0 mm 6 mps 699 mmHg 42%
    15:00 +25°C° 0 mm 5 mps 699 mmHg 45%
    16:00 +23°C° 0 mm 4 mps 699 mmHg 49%
    17:00 +24°C° 0 mm 3 mps 699 mmHg 52%
    18:00 +21°C° 0 mm 3 mps 699 mmHg 57%
    19:00 +20°C° 0 mm 3 mps 699 mmHg 62%
    20:00 +18°C° 0 mm 2 mps 699 mmHg 68%
    21:00 +18°C° 0 mm 2 mps 700 mmHg 69%
    22:00 +18°C° 0 mm 3 mps 700 mmHg 71%
    23:00 +17°C° 0 mm 3 mps 700 mmHg 73%
    Show more